Lid_Strength_Index
3 3 3 3 3 3 3 3 3 3 3 3 3 3 3 3 3 3 3 3 3 3 2 2 2 2 4 7 8 0 -2 -2 2 5 6 7 9 10 12 10 9 10 8 8 6 7 8
3 3 3 3 3 3 3 3 3 3 3 3 3 3 3 3 3 3 3 3 3 3 3 2 2 2 6 10 3 2 0 1 2 5 5 6 8 8 10 10 11 9 8 8 8 8 8
3 3 3 3 3 3 3 3 3 3 3 3 3 3 3 3 3 3 3 3 3 3 3 2 2 2 5 7 3 1 1 2 2 4 5 5 6 8 8 10 8 8 10 9 9 8 8
3 3 3 3 2 3 3 3 3 3 3 3 3 3 3 3 3 3 2 3 3 3 2 2 2 3 6 2 2 3 3 2 2 3 4 4 4 7 9 8 8 10 11 13 9 8 7
2 2 2 2 2 3 3 3 3 3 3 3 3 3 3 3 3 2 2 2 2 2 2 2 4 5 6 2 5 4 4 4 3 4 4 2 6 8 8 11 12 11 13 12 11 8 8
2 3 2 2 2 3 3 3 3 3 3 3 4 3 3 3 3 2 2 2 2 3 3 2 3 6 4 4 4 4 4 3 4 5 5 7 9 10 11 13 15 13 12 12 11 9 8
3 3 2 3 3 3 3 3 3 3 4 4 4 4 3 3 3 3 4 6 6 8 4 6 5 5 3 2 2 4 4 4 5 7 10 8 12 13 11 9 9 9 10 11 10 8 9
3 3 2 2 3 3 3 3 3 4 4 4 4 4 4 3 3 3 4 4 3 4 7 3 4 4 2 3 5 5 3 6 7 10 8 9 12 9 7 8 8 9 11 11 10 8 10
3 2 2 3 3 3 3 3 3 3 4 4 4 4 3 3 3 4 4 2 0 2 7 5 4 4 4 4 5 6 4 5 7 9 9 10 8 6 7 8 9 11 11 11 11 9 9
2 2 2 3 3 3 3 3 3 3 3 3 3 3 3 3 5 3 4 2 2 2 10 8 6 5 4 4 5 3 3 5 6 8 8 9 7 7 8 8 9 12 8 8 9 11 14
3 2 2 3 3 3 3 3 3 3 3 3 3 3 3 3 6 4 2 2 2 3 17 7 6 2 4 6 5 5 3 5 7 7 7 9 8 8 9 8 7 9 7 8 9 11 12
3 3 3 3 3 3 3 3 3 3 3 3 3 3 3 5 5 3 1 3 3 11 16 8 6 7 7 6 5 5 5 4 5 7 7 8 6 7 8 7 7 7 9 10 10 12 15
3 3 3 3 3 3 3 3 3 3 3 3 3 3 3 2 4 1 3 4 11 15 7 9 8 7 7 7 6 6 7 9 11 12 11 8 8 7 7 9 8 9 11 15 16 17 16
3 3 3 3 3 3 3 3 3 3 4 4 3 3 4 3 2 2 3 8 15 9 9 6 7 7 8 7 7 6 8 11 10 10 11 13 13 8 8 10 12 11 12 16 19 18 16
3 3 3 3 3 3 3 3 3 4 4 4 5 4 3 1 1 2 6 13 12 9 8 8 8 9 9 8 8 8 11 11 11 11 13 14 12 8 9 9 10 11 14 13 15 13 15
3 3 3 3 3 3 3 3 3 3 4 4 4 3 3 0 1 3 8 11 8 7 7 8 10 8 11 9 9 10 10 10 10 10 11 12 14 10 9 9 10 11 10 14 14 18 19
3 3 3 3 3 3 3 3 3 3 4 4 4 5 2 1 1 6 11 9 8 7 7 8 9 9 9 9 9 10 12 12 11 10 10 12 12 10 10 12 13 12 13 13 13 13 17
3 3 3 3 3 3 3 3 3 4 5 5 4 8 3 2 7 7 9 8 8 8 6 7 6 8 9 8 11 13 13 12 10 9 11 11 13 15 13 10 9 11 13 13 16 17 15
4 3 3 3 3 3 3 3 3 4 5 5 6 5 2 3 10 10 8 8 8 8 8 7 7 7 8 9 12 12 12 10 11 10 12 10 12 15 14 12 10 12 11 12 14 14 17
4 3 3 3 3 3 3 3 3 4 4 4 5 8 5 5 5 8 9 9 10 8 8 7 8 7 8 9 9 12 11 10 9 9 7 8 12 14 17 15 12 13 12 12 14 17 16
4 3 3 3 3 3 3 3 3 4 4 3 5 7 6 9 8 7 7 8 10 10 8 8 9 8 9 12 11 12 12 11 9 7 9 9 13 12 12 11 10 11 12 12 14 14 16
4 3 3 3 3 3 3 3 3 4 4 3 6 7 6 7 6 7 8 9 9 9 9 9 9 8 9 11 11 13 12 11 12 9 11 10 13 11 12 9 11 13 11 12 13 14 14
4 4 3 3 3 3 3 3 3 3 3 3 3 3 6 8 8 9 10 9 9 8 8 7 8 9 10 9 8 9 9 9 10 10 11 11 12 13 14 11 11 15 13 12 13 13 13
4 4 3 3 3 2 2 3 3 3 4 3 3 4 7 10 9 9 9 8 9 8 9 8 8 9 8 6 7 8 9 9 9 9 9 11 12 12 15 13 19 12 9 9 12 12 12
4 4 3 3 2 2 3 3 3 3 3 2 3 3 7 10 8 8 8 8 8 8 8 8 8 7 7 7 10 12 12 11 9 8 9 8 11 14 16 17 14 11 10 11 12 13 10
3 3 3 3 3 3 3 3 2 2 2 1 1 2 4 7 8 5 7 6 8 9 9 8 6 6 7 8 10 14 15 11 12 10 8 8 9 13 14 18 19 13 9 7 8 14 9
4 4 4 4 3 3 2 2 2 2 2 1 2 1 4 7 6 6 7 7 6 6 9 8 7 7 6 10 12 13 13 9 14 13 13 12 12 15 15 17 13 9 8 7 16 16 10
4 4 4 4 3 2 2 2 2 2 2 1 1 1 4 6 5 4 4 6 6 6 9 7 8 8 9 12 11 12 12 11 12 11 12 14 15 15 14 16 18 7 8 15 12 10 9
5 5 3 3 3 2 2 2 2 2 2 1 2 1 -0 3 4 2 2 1 2 3 6 6 8 8 8 9 10 9 12 11 12 15 9 14 12 13 12 13 7 7 9 8 7 8 8